Location: Sandbach
(53.1410°N, 2.3660°W)
Time: 13:04:07
(UTC+00:00)

ISS - Pass Details

Date: 06 December 2021
Orbit: 413 x 422 km, 51.6° (Epoch: 18 January)

Event Time Altitude Azimuth Distance (km) Brightness Sun altitude
Rises 18:26:16 0° 276° (W) 2,384 1.4 -21.6°
Reaches altitude 10° 18:29:31 10° 243° (WSW) 1,510 0.1 -22.1°
Maximum altitude 18:30:46 12° 221° (SW) 1,409 -0.5 -22.3°
Drops below altitude 10° 18:32:01 10° 199° (SSW) 1,504 -0.6 -22.5°
Enters shadow 18:33:36 - 178° (S) 1,852 -0.4 -22.7°
